QPF
0.01 0.04 0.13 0.18 0.23 0.26 0.22 0.13 0.09 0.11 0.07 0.02 0.00 0.01 0.07 0.12 0.13 0.17 0.25 0.12 0.05 0.05 0.04 0.02 0.03 0.04 0.05 0.05 0.04 0.03 0.03 0.03 0.03 0.04 0.04 0.04 0.03 0.03 0.02 0.01 0.01 0.01 0.01 0.01 0.01 0.01 0.01 0.01 0.01
0.03 0.08 0.11 0.17 0.27 0.30 0.23 0.15 0.14 0.11 0.03 0.01 0.00 0.01 0.05 0.05 0.03 0.11 0.22 0.18 0.05 0.04 0.06 0.07 0.07 0.04 0.04 0.05 0.06 0.06 0.07 0.07 0.06 0.06 0.07 0.06 0.06 0.05 0.04 0.02 0.02 0.02 0.01 0.02 0.02 0.01 0.02 0.01 0.01
0.04 0.08 0.11 0.18 0.19 0.21 0.21 0.16 0.11 0.03 0.00 0.00 0.01 0.01 0.02 0.03 0.04 0.11 0.18 0.11 0.05 0.07 0.10 0.09 0.06 0.04 0.05 0.05 0.06 0.07 0.09 0.09 0.09 0.09 0.10 0.10 0.10 0.08 0.05 0.03 0.02 0.02 0.02 0.02 0.02 0.02 0.02 0.02 0.01
0.05 0.08 0.12 0.17 0.15 0.08 0.10 0.09 0.02 0.02 0.01 0.00 0.00 0.01 0.01 0.02 0.04 0.06 0.07 0.04 0.04 0.05 0.07 0.06 0.06 0.06 0.06 0.06 0.06 0.07 0.08 0.09 0.09 0.09 0.11 0.11 0.12 0.10 0.08 0.05 0.04 0.04 0.04 0.04 0.03 0.02 0.02 0.01 0.01
0.08 0.11 0.16 0.18 0.11 0.02 0.01 0.02 0.00 0.01 0.01 0.01 0.01 0.03 0.03 0.03 0.04 0.03 0.03 0.02 0.04 0.04 0.05 0.05 0.04 0.04 0.05 0.06 0.06 0.06 0.06 0.08 0.08 0.08 0.09 0.10 0.11 0.10 0.08 0.07 0.06 0.06 0.05 0.05 0.04 0.03 0.02 0.01 0.01
0.11 0.10 0.16 0.20 0.12 0.04 0.02 0.01 0.01 0.01 0.00 0.00 0.02 0.04 0.03 0.02 0.02 0.02 0.01 0.02 0.02 0.02 0.03 0.04 0.04 0.04 0.04 0.05 0.05 0.05 0.04 0.04 0.05 0.05 0.07 0.07 0.08 0.08 0.07 0.06 0.06 0.07 0.07 0.06 0.05 0.04 0.02 0.02 0.01
0.10 0.09 0.09 0.09 0.09 0.07 0.03 0.00 0.01 0.02 0.01 0.00 0.01 0.04 0.04 0.04 0.01 0.01 0.01 0.01 0.01 0.01 0.01 0.02 0.03 0.04 0.04 0.06 0.06 0.06 0.06 0.06 0.06 0.06 0.05 0.06 0.06 0.06 0.06 0.06 0.06 0.05 0.06 0.07 0.07 0.05 0.03 0.02 0.01
0.04 0.05 0.08 0.07 0.09 0.08 0.01 0.00 0.00 0.00 0.00 0.00 0.00 0.03 0.04 0.03 0.01 0.02 0.03 0.01 0.01 0.01 0.00 0.01 0.01 0.02 0.04 0.07 0.06 0.06 0.07 0.07 0.07 0.08 0.09 0.08 0.06 0.06 0.07 0.06 0.07 0.07 0.07 0.08 0.08 0.07 0.04 0.02 0.01
0.02 0.09 0.15 0.11 0.10 0.07 0.01 0.01 0.00 0.00 0.00 0.00 0.00 0.01 0.02 0.01 0.00 0.02 0.03 0.01 0.01 0.01 0.01 0.01 0.01 0.02 0.02 0.03 0.02 0.03 0.04 0.04 0.05 0.06 0.10 0.09 0.07 0.10 0.15 0.13 0.13 0.12 0.12 0.10 0.10 0.08 0.05 0.03 0.01
0.03 0.11 0.13 0.09 0.05 0.03 0.06 0.04 0.00 0.00 0.00 0.00 0.00 0.00 0.01 0.01 0.01 0.01 0.02 0.02 0.02 0.01 0.01 0.01 0.01 0.01 0.01 0.01 0.01 0.02 0.02 0.02 0.02 0.03 0.06 0.10 0.11 0.11 0.11 0.15 0.16 0.13 0.11 0.10 0.09 0.08 0.06 0.03 0.02
0.01 0.04 0.02 0.02 0.01 0.01 0.03 0.02 0.00 0.01 0.02 0.00 0.00 0.00 0.01 0.02 0.02 0.01 0.01 0.01 0.01 0.01 0.01 0.01 0.01 0.01 0.01 0.01 0.01 0.02 0.02 0.02 0.02 0.03 0.04 0.06 0.08 0.10 0.10 0.12 0.14 0.15 0.13 0.13 0.17 0.12 0.07 0.05 0.05
0.01 0.00 0.00 0.00 0.00 0.00 0.00 0.00 0.00 0.01 0.01 0.00 0.00 0.00 0.00 0.00 0.00 0.00 0.00 0.00 0.00 0.00 0.00 0.00 0.00 0.00 0.00 0.00 0.00 0.01 0.02 0.02 0.02 0.03 0.03 0.05 0.08 0.08 0.11 0.13 0.15 0.18 0.17 0.19 0.20 0.18 0.13 0.09 0.07
0.03 0.01 0.00 0.00 0.00 0.00 0.00 0.00 0.00 0.00 0.00 0.00 0.00 0.00 0.00 0.00 0.00 0.00 0.00 0.00 0.00 0.00 0.00 0.00 0.00 0.00 0.00 0.00 0.00 0.00 0.01 0.01 0.02 0.03 0.03 0.04 0.06 0.07 0.11 0.13 0.14 0.16 0.20 0.21 0.18 0.13 0.12 0.09 0.07
0.03 0.01 0.00 0.00 0.00 0.00 0.00 0.00 0.00 0.00 0.00 0.00 0.00 0.00 0.00 0.00 0.00 0.00 0.00 0.00 0.00 0.00 0.00 0.00 0.00 0.00 0.00 0.00 0.00 0.00 0.00 0.01 0.01 0.02 0.02 0.03 0.05 0.06 0.07 0.10 0.12 0.13 0.14 0.17 0.16 0.13 0.14 0.11 0.08
0.00 0.00 0.01 0.00 0.00 0.00 0.00 0.01 0.00 0.00 0.00 0.00 0.00 0.00 0.00 0.00 0.00 0.00 0.00 0.00 0.00 0.00 0.00 0.00 0.00 0.00 0.00 0.00 0.00 0.00 0.00 0.00 0.00 0.01 0.02 0.03 0.05 0.05 0.06 0.10 0.11 0.12 0.10 0.11 0.12 0.10 0.15 0.13 0.11
0.00 0.02 0.05 0.03 0.02 0.00 0.01 0.04 0.01 0.00 0.00 0.00 0.00 0.00 0.00 0.00 0.00 0.00 0.00 0.00 0.00 0.00 0.00 0.00 0.00 0.00 0.00 0.00 0.00 0.00 0.00 0.00 0.01 0.01 0.02 0.03 0.03 0.03 0.05 0.07 0.09 0.12 0.14 0.13 0.12 0.13 0.17 0.17 0.15
0.03 0.06 0.09 0.08 0.05 0.01 0.01 0.03 0.00 0.00 0.00 0.00 0.00 0.00 0.00 0.00 0.00 0.00 0.00 0.00 0.00 0.00 0.00 0.00 0.00 0.00 0.00 0.00 0.00 0.00 0.00 0.01 0.01 0.01 0.02 0.03 0.04 0.05 0.06 0.06 0.06 0.09 0.15 0.15 0.11 0.13 0.14 0.17 0.18
0.07 0.07 0.06 0.05 0.02 0.01 0.00 0.01 0.00 0.00 0.00 0.00 0.00 0.00 0.00 0.00 0.00 0.00 0.00 0.00 0.00 0.00 0.00 0.00 0.00 0.00 0.01 0.01 0.01 0.01 0.01 0.01 0.02 0.03 0.03 0.03 0.04 0.05 0.06 0.05 0.05 0.08 0.13 0.15 0.13 0.16 0.17 0.16 0.17
0.04 0.02 0.01 0.01 0.01 0.01 0.00 0.01 0.00 0.00 0.00 0.00 0.00 0.00 0.00 0.00 0.00 0.00 0.00 0.00 0.00 0.00 0.00 0.00 0.01 0.01 0.02 0.02 0.01 0.01 0.02 0.02 0.03 0.03 0.02 0.03 0.03 0.04 0.05 0.06 0.06 0.08 0.10 0.13 0.13 0.17 0.19 0.19 0.19
0.03 0.01 0.01 0.01 0.02 0.02 0.00 0.00 0.00 0.00 0.00 0.00 0.00 0.00 0.00 0.00 0.00 0.00 0.00 0.00 0.00 0.00 0.00 0.00 0.00 0.01 0.03 0.03 0.02 0.02 0.02 0.03 0.03 0.03 0.03 0.04 0.03 0.03 0.03 0.03 0.05 0.07 0.08 0.09 0.12 0.15 0.17 0.15 0.17
0.00 0.00 0.01 0.01 0.01 0.01 0.00 0.00 0.00 0.00 0.00 0.00 0.00 0.00 0.00 0.00 0.00 0.00 0.00 0.00 0.00 0.00 0.00 0.00 0.00 0.01 0.02 0.02 0.03 0.03 0.03 0.04 0.04 0.04 0.04 0.04 0.04 0.04 0.03 0.03 0.05 0.05 0.06 0.07 0.10 0.12 0.14 0.12 0.14
0.01 0.01 0.01 0.00 0.00 0.00 0.00 0.00 0.00 0.00 0.00 0.00 0.00 0.00 0.00 0.00 0.00 0.00 0.00 0.00 0.00 0.00 0.00 0.00 0.00 0.01 0.01 0.01 0.02 0.03 0.04 0.05 0.06 0.05 0.05 0.05 0.05 0.04 0.04 0.04 0.04 0.05 0.06 0.06 0.07 0.10 0.12 0.12 0.11
0.01 0.01 0.00 0.00 0.00 0.00 0.00 0.00 0.00 0.00 0.00 0.00 0.00 0.00 0.00 0.00 0.00 0.00 0.00 0.00 0.00 0.00 0.00 0.00 0.00 0.01 0.01 0.01 0.01 0.03 0.03 0.05 0.07 0.07 0.05 0.05 0.06 0.06 0.04 0.04 0.05 0.06 0.06 0.06 0.07 0.09 0.11 0.12 0.12
0.00 0.00 0.00 0.00 0.00 0.00 0.00 0.00 0.00 0.00 0.00 0.00 0.00 0.00 0.00 0.00 0.00 0.00 0.00 0.00 0.00 0.00 0.00 0.00 0.01 0.01 0.00 0.00 0.01 0.03 0.02 0.03 0.04 0.05 0.05 0.05 0.06 0.06 0.04 0.04 0.05 0.05 0.06 0.06 0.06 0.07 0.08 0.11 0.13
0.00 0.00 0.00 0.00 0.00 0.00 0.00 0.00 0.00 0.00 0.00 0.00 0.00 0.00 0.00 0.00 0.00 0.00 0.00 0.00 0.00 0.00 0.00 0.00 0.00 0.00 0.00 0.00 0.01 0.02 0.02 0.02 0.03 0.03 0.04 0.05 0.07 0.07 0.05 0.05 0.04 0.04 0.05 0.06 0.07 0.08 0.09 0.09 0.10
0.00 0.00 0.00 0.00 0.00 0.00 0.00 0.00 0.00 0.00 0.00 0.00 0.00 0.00 0.00 0.00 0.00 0.00 0.00 0.00 0.00 0.00 0.00 0.00 0.00 0.00 0.00 0.00 0.00 0.02 0.02 0.02 0.03 0.03 0.03 0.03 0.04 0.05 0.05 0.05 0.04 0.04 0.05 0.06 0.07 0.07 0.07 0.08 0.11
0.00 0.00 0.00 0.00 0.00 0.00 0.00 0.00 0.00 0.00 0.00 0.00 0.00 0.00 0.00 0.00 0.00 0.00 0.00 0.00 0.00 0.00 0.00 0.00 0.00 0.00 0.00 0.00 0.00 0.01 0.02 0.02 0.02 0.02 0.02 0.03 0.02 0.02 0.03 0.04 0.04 0.05 0.06 0.07 0.07 0.07 0.07 0.09 0.10
0.00 0.00 0.00 0.00 0.00 0.00 0.00 0.00 0.00 0.00 0.00 0.00 0.00 0.00 0.00 0.00 0.00 0.00 0.00 0.00 0.00 0.00 0.00 0.00 0.00 0.00 0.00 0.00 0.00 0.00 0.01 0.01 0.02 0.03 0.03 0.04 0.03 0.02 0.03 0.04 0.05 0.06 0.05 0.06 0.07 0.08 0.09 0.09 0.08
0.00 0.00 0.00 0.00 0.00 0.00 0.00 0.00 0.00 0.00 0.00 0.00 0.00 0.00 0.00 0.00 0.00 0.00 0.00 0.00 0.00 0.00 0.00 0.00 0.00 0.00 0.00 0.00 0.00 0.00 0.00 0.01 0.02 0.03 0.04 0.06 0.05 0.03 0.03 0.02 0.03 0.04 0.04 0.06 0.06 0.06 0.06 0.06 0.06
0.00 0.00 0.00 0.00 0.00 0.00 0.00 0.00 0.00 0.00 0.00 0.00 0.00 0.00 0.00 0.00 0.00 0.00 0.00 0.00 0.00 0.00 0.00 0.00 0.00 0.00 0.00 0.00 0.01 0.00 0.00 0.01 0.02 0.02 0.02 0.04 0.04 0.03 0.03 0.03 0.03 0.05 0.04 0.05 0.05 0.04 0.03 0.04 0.04
MSLP
1010.37 1011.38 1012.56 1013.75 1014.77 1015.47 1015.76 1015.64 1015.19 1014.54 1013.89 1013.38 1013.13 1013.15 1013.40 1013.75 1014.08 1014.25 1014.19 1013.90 1013.46 1012.95 1012.51 1012.22 1012.15 1012.28 1012.55 1012.86 1013.14 1013.33 1013.40 1013.37 1013.30 1013.26 1013.28 1013.39 1013.58 1013.82 1014.05 1014.23 1014.33 1014.36 1014.33 1014.28 1014.24 1014.24 1014.27 1014.32 1014.36
1010.67 1011.80 1013.05 1014.23 1015.17 1015.75 1015.90 1015.65 1015.08 1014.37 1013.69 1013.21 1013.00 1013.08 1013.38 1013.77 1014.11 1014.28 1014.22 1013.93 1013.49 1012.99 1012.57 1012.31 1012.26 1012.40 1012.66 1012.96 1013.22 1013.38 1013.42 1013.37 1013.28 1013.23 1013.24 1013.35 1013.53 1013.75 1013.97 1014.13 1014.22 1014.24 1014.22 1014.19 1014.18 1014.20 1014.26 1014.33 1014.37
1011.02 1012.23 1013.48 1014.60 1015.43 1015.86 1015.86 1015.47 1014.82 1014.06 1013.40 1012.96 1012.82 1012.96 1013.31 1013.74 1014.09 1014.27 1014.20 1013.92 1013.50 1013.04 1012.65 1012.43 1012.41 1012.56 1012.82 1013.10 1013.33 1013.44 1013.45 1013.37 1013.26 1013.19 1013.19 1013.28 1013.44 1013.65 1013.84 1013.98 1014.07 1014.09 1014.08 1014.07 1014.10 1014.16 1014.25 1014.34 1014.40
1011.39 1012.62 1013.82 1014.83 1015.52 1015.79 1015.65 1015.16 1014.46 1013.71 1013.10 1012.74 1012.67 1012.88 1013.28 1013.72 1014.08 1014.25 1014.18 1013.91 1013.51 1013.09 1012.75 1012.58 1012.59 1012.76 1013.01 1013.26 1013.44 1013.52 1013.48 1013.37 1013.23 1013.14 1013.12 1013.20 1013.34 1013.53 1013.70 1013.84 1013.91 1013.95 1013.96 1013.99 1014.05 1014.14 1014.26 1014.38 1014.45
1011.74 1012.93 1014.03 1014.90 1015.42 1015.55 1015.30 1014.76 1014.07 1013.38 1012.86 1012.60 1012.63 1012.91 1013.34 1013.78 1014.11 1014.25 1014.17 1013.90 1013.53 1013.15 1012.87 1012.74 1012.79 1012.96 1013.20 1013.41 1013.55 1013.57 1013.49 1013.34 1013.18 1013.07 1013.05 1013.11 1013.25 1013.42 1013.58 1013.71 1013.80 1013.85 1013.89 1013.95 1014.04 1014.17 1014.31 1014.43 1014.50
1012.00 1013.09 1014.06 1014.77 1015.15 1015.17 1014.87 1014.34 1013.72 1013.15 1012.76 1012.63 1012.76 1013.09 1013.52 1013.93 1014.22 1014.31 1014.19 1013.91 1013.56 1013.23 1013.00 1012.91 1012.98 1013.15 1013.36 1013.54 1013.62 1013.59 1013.47 1013.29 1013.11 1013.00 1012.97 1013.03 1013.16 1013.33 1013.49 1013.62 1013.72 1013.79 1013.86 1013.94 1014.06 1014.21 1014.35 1014.47 1014.52
1012.12 1013.09 1013.89 1014.46 1014.72 1014.68 1014.39 1013.94 1013.44 1013.04 1012.82 1012.82 1013.04 1013.40 1013.82 1014.18 1014.39 1014.41 1014.24 1013.94 1013.60 1013.30 1013.11 1013.06 1013.14 1013.31 1013.49 1013.61 1013.65 1013.57 1013.41 1013.21 1013.03 1012.91 1012.88 1012.94 1013.08 1013.24 1013.40 1013.53 1013.63 1013.72 1013.81 1013.91 1014.05 1014.19 1014.33 1014.43 1014.46
1012.10 1012.91 1013.56 1014.00 1014.18 1014.13 1013.91 1013.58 1013.27 1013.06 1013.02 1013.15 1013.44 1013.82 1014.18 1014.46 1014.58 1014.51 1014.29 1013.97 1013.64 1013.36 1013.21 1013.18 1013.27 1013.42 1013.56 1013.63 1013.62 1013.50 1013.31 1013.10 1012.92 1012.81 1012.79 1012.85 1012.97 1013.13 1013.27 1013.40 1013.50 1013.59 1013.68 1013.80 1013.94 1014.08 1014.20 1014.27 1014.26
1011.95 1012.61 1013.12 1013.46 1013.60 1013.59 1013.47 1013.31 1013.20 1013.18 1013.30 1013.54 1013.88 1014.23 1014.53 1014.72 1014.73 1014.58 1014.31 1013.98 1013.66 1013.41 1013.28 1013.27 1013.36 1013.48 1013.58 1013.61 1013.54 1013.39 1013.19 1012.97 1012.80 1012.69 1012.67 1012.73 1012.84 1012.97 1013.09 1013.19 1013.27 1013.35 1013.45 1013.56 1013.70 1013.83 1013.93 1013.97 1013.93
1011.73 1012.25 1012.66 1012.93 1013.07 1013.13 1013.13 1013.14 1013.21 1013.36 1013.60 1013.92 1014.26 1014.57 1014.79 1014.87 1014.80 1014.59 1014.28 1013.95 1013.65 1013.45 1013.35 1013.35 1013.43 1013.52 1013.57 1013.55 1013.45 1013.27 1013.05 1012.83 1012.66 1012.57 1012.54 1012.59 1012.66 1012.75 1012.83 1012.89 1012.94 1013.01 1013.09 1013.20 1013.33 1013.45 1013.54 1013.56 1013.50
1011.52 1011.95 1012.27 1012.51 1012.68 1012.80 1012.93 1013.08 1013.28 1013.55 1013.87 1014.21 1014.52 1014.77 1014.90 1014.89 1014.74 1014.49 1014.19 1013.88 1013.63 1013.47 1013.41 1013.43 1013.49 1013.55 1013.56 1013.49 1013.35 1013.14 1012.92 1012.70 1012.54 1012.44 1012.41 1012.42 1012.46 1012.50 1012.52 1012.53 1012.54 1012.58 1012.65 1012.76 1012.88 1013.01 1013.09 1013.09 1013.02
1011.42 1011.79 1012.08 1012.30 1012.49 1012.67 1012.88 1013.12 1013.40 1013.72 1014.06 1014.37 1014.62 1014.78 1014.82 1014.74 1014.56 1014.31 1014.04 1013.79 1013.60 1013.50 1013.48 1013.51 1013.56 1013.58 1013.55 1013.44 1013.26 1013.04 1012.81 1012.60 1012.44 1012.34 1012.29 1012.27 1012.26 1012.24 1012.20 1012.16 1012.13 1012.14 1012.19 1012.30 1012.43 1012.55 1012.64 1012.65 1012.58
1011.53 1011.87 1012.13 1012.34 1012.54 1012.75 1012.98 1013.25 1013.55 1013.85 1014.14 1014.38 1014.54 1014.61 1014.59 1014.47 1014.28 1014.06 1013.85 1013.68 1013.58 1013.54 1013.56 1013.61 1013.64 1013.63 1013.56 1013.42 1013.21 1012.98 1012.74 1012.54 1012.38 1012.27 1012.20 1012.15 1012.09 1012.01 1011.93 1011.83 1011.77 1011.75 1011.79 1011.90 1012.03 1012.17 1012.27 1012.30 1012.23
1011.88 1012.20 1012.44 1012.64 1012.82 1013.01 1013.22 1013.45 1013.69 1013.91 1014.10 1014.24 1014.31 1014.31 1014.24 1014.11 1013.95 1013.80 1013.67 1013.59 1013.57 1013.60 1013.66 1013.71 1013.73 1013.69 1013.59 1013.42 1013.20 1012.96 1012.73 1012.53 1012.38 1012.27 1012.18 1012.10 1012.00 1011.88 1011.74 1011.61 1011.52 1011.48 1011.52 1011.62 1011.76 1011.91 1012.03 1012.07 1012.02
1012.43 1012.74 1012.95 1013.11 1013.24 1013.37 1013.51 1013.65 1013.79 1013.90 1013.98 1014.01 1014.00 1013.94 1013.84 1013.74 1013.63 1013.56 1013.52 1013.53 1013.58 1013.66 1013.74 1013.80 1013.81 1013.75 1013.62 1013.44 1013.22 1012.98 1012.77 1012.59 1012.45 1012.33 1012.23 1012.12 1011.99 1011.84 1011.67 1011.52 1011.40 1011.35 1011.37 1011.47 1011.61 1011.77 1011.90 1011.96 1011.93
1013.10 1013.38 1013.55 1013.65 1013.71 1013.75 1013.78 1013.81 1013.82 1013.82 1013.78 1013.72 1013.64 1013.55 1013.47 1013.41 1013.38 1013.38 1013.43 1013.51 1013.62 1013.72 1013.81 1013.86 1013.85 1013.78 1013.64 1013.46 1013.26 1013.06 1012.87 1012.71 1012.58 1012.47 1012.35 1012.23 1012.07 1011.90 1011.71 1011.54 1011.41 1011.34 1011.35 1011.43 1011.57 1011.72 1011.85 1011.93 1011.92
1013.75 1013.98 1014.09 1014.12 1014.10 1014.05 1013.97 1013.88 1013.78 1013.66 1013.53 1013.41 1013.30 1013.22 1013.17 1013.16 1013.20 1013.28 1013.39 1013.52 1013.65 1013.76 1013.83 1013.86 1013.84 1013.76 1013.64 1013.49 1013.33 1013.17 1013.02 1012.88 1012.77 1012.65 1012.53 1012.39 1012.22 1012.02 1011.82 1011.64 1011.49 1011.40 1011.39 1011.45 1011.56 1011.70 1011.83 1011.91 1011.93
1014.23 1014.40 1014.45 1014.42 1014.33 1014.20 1014.03 1013.85 1013.65 1013.45 1013.26 1013.11 1013.00 1012.95 1012.95 1013.02 1013.12 1013.26 1013.40 1013.54 1013.66 1013.75 1013.80 1013.80 1013.77 1013.70 1013.62 1013.52 1013.41 1013.30 1013.20 1013.10 1012.99 1012.88 1012.74 1012.58 1012.39 1012.18 1011.96 1011.76 1011.60 1011.49 1011.44 1011.46 1011.54 1011.65 1011.77 1011.86 1011.91
1014.44 1014.57 1014.58 1014.51 1014.38 1014.20 1013.97 1013.72 1013.46 1013.22 1013.00 1012.85 1012.76 1012.76 1012.82 1012.95 1013.11 1013.28 1013.44 1013.56 1013.65 1013.69 1013.70 1013.68 1013.65 1013.61 1013.57 1013.53 1013.50 1013.46 1013.40 1013.33 1013.24 1013.11 1012.95 1012.76 1012.55 1012.32 1012.09 1011.87 1011.69 1011.55 1011.47 1011.45 1011.48 1011.55 1011.64 1011.74 1011.82
1014.36 1014.47 1014.48 1014.41 1014.28 1014.09 1013.85 1013.57 1013.28 1013.02 1012.80 1012.65 1012.60 1012.64 1012.77 1012.94 1013.14 1013.33 1013.48 1013.57 1013.61 1013.60 1013.57 1013.53 1013.50 1013.49 1013.51 1013.55 1013.59 1013.62 1013.62 1013.57 1013.47 1013.33 1013.14 1012.92 1012.67 1012.42 1012.17 1011.94 1011.74 1011.57 1011.45 1011.38 1011.36 1011.39 1011.45 1011.54 1011.65
1014.04 1014.16 1014.22 1014.21 1014.12 1013.97 1013.75 1013.47 1013.18 1012.90 1012.68 1012.54 1012.52 1012.60 1012.76 1012.97 1013.19 1013.38 1013.51 1013.56 1013.55 1013.49 1013.42 1013.36 1013.35 1013.38 1013.46 1013.58 1013.69 1013.78 1013.82 1013.79 1013.68 1013.51 1013.29 1013.02 1012.74 1012.47 1012.20 1011.96 1011.75 1011.56 1011.41 1011.29 1011.22 1011.19 1011.22 1011.30 1011.42
1013.60 1013.79 1013.94 1014.02 1014.03 1013.95 1013.77 1013.51 1013.21 1012.91 1012.68 1012.53 1012.50 1012.59 1012.77 1013.00 1013.23 1013.42 1013.52 1013.54 1013.50 1013.40 1013.30 1013.24 1013.24 1013.31 1013.44 1013.62 1013.79 1013.93 1013.99 1013.97 1013.84 1013.64 1013.37 1013.07 1012.77 1012.47 1012.20 1011.95 1011.73 1011.53 1011.35 1011.20 1011.07 1010.99 1010.98 1011.02 1011.14
1013.19 1013.48 1013.76 1013.98 1014.10 1014.11 1013.97 1013.73 1013.41 1013.08 1012.79 1012.61 1012.55 1012.62 1012.79 1013.02 1013.26 1013.44 1013.53 1013.54 1013.46 1013.35 1013.24 1013.17 1013.18 1013.29 1013.46 1013.68 1013.89 1014.05 1014.12 1014.09 1013.94 1013.70 1013.40 1013.06 1012.74 1012.43 1012.17 1011.93 1011.72 1011.52 1011.33 1011.14 1010.97 1010.83 1010.75 1010.75 1010.84
1012.92 1013.34 1013.77 1014.14 1014.38 1014.46 1014.37 1014.12 1013.77 1013.37 1013.01 1012.76 1012.64 1012.66 1012.81 1013.02 1013.25 1013.44 1013.54 1013.55 1013.47 1013.36 1013.24 1013.18 1013.20 1013.32 1013.51 1013.74 1013.96 1014.13 1014.19 1014.13 1013.96 1013.69 1013.36 1013.01 1012.67 1012.37 1012.12 1011.91 1011.72 1011.54 1011.34 1011.12 1010.91 1010.71 1010.56 1010.49 1010.52
1012.85 1013.41 1013.98 1014.48 1014.82 1014.97 1014.90 1014.62 1014.21 1013.73 1013.28 1012.93 1012.72 1012.69 1012.79 1012.99 1013.22 1013.42 1013.54 1013.57 1013.52 1013.42 1013.31 1013.26 1013.28 1013.39 1013.58 1013.80 1014.01 1014.15 1014.19 1014.10 1013.90 1013.61 1013.26 1012.91 1012.58 1012.30 1012.08 1011.90 1011.74 1011.57 1011.38 1011.15 1010.89 1010.63 1010.40 1010.24 1010.18
1012.98 1013.65 1014.33 1014.92 1015.34 1015.52 1015.44 1015.13 1014.64 1014.07 1013.51 1013.06 1012.78 1012.68 1012.74 1012.93 1013.16 1013.38 1013.53 1013.60 1013.58 1013.51 1013.42 1013.37 1013.39 1013.48 1013.64 1013.83 1014.00 1014.11 1014.12 1014.01 1013.79 1013.48 1013.13 1012.78 1012.47 1012.22 1012.04 1011.90 1011.77 1011.62 1011.43 1011.19 1010.89 1010.57 1010.26 1009.99 1009.82
1013.23 1013.96 1014.70 1015.34 1015.78 1015.96 1015.86 1015.50 1014.94 1014.29 1013.65 1013.12 1012.76 1012.61 1012.64 1012.81 1013.05 1013.30 1013.49 1013.60 1013.62 1013.58 1013.52 1013.47 1013.48 1013.55 1013.68 1013.82 1013.95 1014.02 1014.00 1013.86 1013.63 1013.32 1012.98 1012.66 1012.38 1012.16 1012.00 1011.90 1011.79 1011.67 1011.49 1011.23 1010.90 1010.52 1010.13 1009.77 1009.49
1013.48 1014.22 1014.96 1015.59 1016.02 1016.18 1016.04 1015.63 1015.03 1014.32 1013.63 1013.05 1012.65 1012.46 1012.47 1012.64 1012.89 1013.16 1013.39 1013.54 1013.61 1013.60 1013.57 1013.53 1013.53 1013.58 1013.66 1013.77 1013.86 1013.90 1013.85 1013.70 1013.47 1013.17 1012.86 1012.56 1012.30 1012.11 1011.99 1011.90 1011.82 1011.70 1011.52 1011.26 1010.90 1010.48 1010.02 1009.58 1009.19
1013.63 1014.32 1015.01 1015.59 1015.96 1016.07 1015.89 1015.46 1014.84 1014.12 1013.42 1012.84 1012.43 1012.24 1012.24 1012.40 1012.67 1012.96 1013.21 1013.40 1013.50 1013.53 1013.52 1013.50 1013.50 1013.54 1013.60 1013.68 1013.74 1013.76 1013.70 1013.56 1013.34 1013.07 1012.78 1012.50 1012.28 1012.11 1012.00 1011.92 1011.84 1011.73 1011.54 1011.27 1010.90 1010.46 1009.96 1009.46 1009.00
1013.63 1014.23 1014.82 1015.30 1015.59 1015.64 1015.43 1015.00 1014.39 1013.71 1013.06 1012.50 1012.13 1011.95 1011.96 1012.13 1012.39 1012.69 1012.95 1013.16 1013.29 1013.36 1013.38 1013.38 1013.39 1013.43 1013.50 1013.57 1013.62 1013.64 1013.58 1013.46 1013.26 1013.03 1012.77 1012.52 1012.31 1012.16 1012.04 1011.96 1011.87 1011.75 1011.56 1011.29 1010.92 1010.47 1009.96 1009.43 1008.93
Thickness
5819 5819 5815 5802 5780 5767 5766 5778 5789 5791 5796 5807 5810 5803 5788 5778 5768 5756 5778 5793 5794 5791 5786 5781 5778 5776 5775 5773 5772 5771 5770 5769 5768 5767 5767 5766 5766 5766 5766 5766 5766 5766 5766 5767 5767 5767 5767 5768 5768
5825 5822 5810 5793 5772 5757 5763 5781 5784 5791 5802 5809 5808 5801 5787 5778 5781 5777 5781 5788 5790 5787 5782 5778 5775 5774 5772 5771 5770 5769 5768 5768 5767 5766 5765 5765 5764 5764 5764 5764 5765 5765 5765 5765 5765 5766 5766 5766 5766
5827 5823 5802 5787 5775 5766 5768 5784 5790 5801 5808 5806 5799 5794 5780 5771 5775 5776 5781 5787 5786 5782 5778 5774 5772 5770 5769 5768 5767 5766 5766 5766 5765 5765 5764 5764 5763 5763 5763 5763 5763 5763 5763 5764 5764 5764 5764 5764 5764
5824 5812 5801 5785 5775 5785 5786 5792 5799 5798 5801 5803 5796 5781 5773 5776 5775 5777 5782 5784 5781 5777 5773 5769 5768 5767 5765 5764 5764 5763 5763 5763 5763 5763 5762 5762 5762 5761 5761 5761 5762 5762 5762 5762 5763 5762 5762 5762 5763
5823 5802 5782 5773 5778 5791 5799 5803 5803 5793 5791 5793 5789 5770 5763 5774 5779 5779 5779 5777 5774 5772 5769 5765 5763 5762 5762 5761 5760 5760 5759 5759 5760 5760 5760 5760 5760 5760 5760 5760 5760 5760 5761 5761 5761 5761 5761 5761 5761
5808 5799 5772 5765 5776 5791 5799 5804 5799 5791 5789 5789 5783 5769 5760 5772 5773 5774 5775 5772 5771 5768 5765 5762 5760 5759 5758 5757 5757 5756 5756 5756 5756 5756 5757 5757 5758 5758 5758 5758 5759 5759 5759 5759 5759 5760 5759 5760 5760
5801 5792 5779 5778 5775 5781 5793 5802 5793 5786 5781 5782 5784 5766 5760 5767 5770 5773 5772 5769 5767 5764 5761 5759 5757 5755 5754 5753 5752 5752 5752 5752 5752 5753 5754 5754 5755 5756 5757 5757 5757 5758 5758 5758 5758 5758 5758 5758 5759
5814 5798 5780 5778 5774 5775 5793 5796 5793 5786 5778 5786 5784 5762 5754 5763 5771 5770 5768 5765 5762 5759 5756 5754 5752 5751 5749 5749 5748 5748 5748 5748 5748 5749 5750 5751 5752 5753 5754 5755 5756 5756 5756 5756 5756 5756 5757 5757 5758
5819 5787 5768 5774 5775 5778 5791 5787 5787 5791 5781 5777 5774 5766 5763 5767 5767 5762 5758 5755 5753 5751 5750 5748 5747 5745 5744 5744 5745 5744 5744 5744 5745 5746 5747 5747 5748 5750 5752 5753 5754 5754 5754 5754 5754 5755 5755 5756 5757
5809 5777 5774 5787 5790 5786 5786 5782 5782 5779 5769 5765 5763 5763 5765 5763 5758 5752 5747 5744 5743 5742 5742 5741 5740 5740 5739 5739 5739 5739 5739 5740 5740 5742 5743 5743 5744 5745 5747 5749 5750 5751 5751 5752 5752 5753 5754 5754 5756
5806 5788 5791 5795 5797 5793 5784 5780 5782 5771 5758 5759 5755 5756 5757 5755 5751 5746 5743 5740 5738 5738 5736 5735 5734 5734 5733 5733 5734 5733 5733 5734 5735 5737 5737 5738 5739 5740 5742 5744 5746 5747 5748 5749 5750 5751 5752 5754 5756
5799 5797 5799 5796 5795 5791 5784 5780 5774 5768 5761 5766 5762 5758 5755 5750 5745 5742 5738 5736 5735 5733 5731 5730 5728 5727 5727 5727 5726 5727 5728 5728 5729 5730 5731 5732 5734 5735 5737 5739 5741 5742 5743 5745 5746 5748 5750 5753 5756
5793 5793 5798 5796 5792 5789 5784 5776 5769 5764 5767 5766 5761 5755 5750 5746 5743 5742 5739 5735 5732 5728 5726 5725 5723 5721 5721 5720 5719 5720 5720 5721 5722 5722 5724 5725 5727 5728 5730 5733 5735 5737 5739 5740 5742 5745 5747 5751 5754
5792 5791 5792 5791 5787 5785 5776 5771 5766 5762 5766 5760 5755 5751 5748 5742 5740 5737 5733 5728 5726 5723 5721 5719 5717 5716 5714 5713 5711 5711 5712 5713 5714 5715 5716 5718 5720 5722 5723 5726 5728 5731 5733 5735 5738 5741 5743 5746 5750
5801 5787 5783 5784 5783 5782 5773 5761 5764 5768 5764 5756 5752 5750 5744 5741 5738 5734 5730 5725 5722 5719 5717 5715 5713 5711 5708 5706 5704 5704 5705 5706 5706 5706 5707 5709 5712 5714 5716 5718 5721 5724 5727 5730 5734 5736 5738 5741 5744
5792 5777 5762 5772 5775 5776 5762 5747 5766 5769 5760 5752 5750 5747 5742 5740 5738 5734 5729 5724 5720 5716 5713 5711 5709 5705 5703 5701 5699 5699 5699 5698 5698 5698 5699 5700 5702 5705 5709 5711 5713 5717 5720 5724 5727 5730 5731 5734 5737
5768 5752 5752 5760 5770 5771 5762 5752 5764 5769 5760 5751 5749 5746 5743 5739 5737 5734 5728 5723 5718 5715 5711 5707 5704 5701 5699 5697 5695 5694 5693 5691 5691 5691 5691 5692 5694 5697 5700 5703 5706 5710 5713 5717 5720 5724 5725 5726 5730
5748 5749 5753 5757 5769 5769 5762 5760 5766 5768 5761 5754 5751 5747 5744 5740 5736 5733 5727 5722 5718 5714 5709 5704 5701 5698 5695 5692 5690 5688 5686 5685 5684 5683 5684 5685 5686 5689 5692 5695 5699 5703 5706 5709 5712 5716 5719 5722 5724
5761 5760 5761 5768 5775 5766 5762 5763 5767 5768 5760 5753 5750 5748 5745 5741 5739 5734 5727 5722 5717 5711 5705 5701 5697 5694 5691 5687 5683 5680 5679 5679 5679 5679 5679 5680 5681 5683 5685 5688 5692 5695 5698 5701 5705 5708 5711 5714 5717
5765 5762 5767 5770 5773 5765 5761 5764 5773 5770 5762 5757 5752 5748 5745 5739 5735 5730 5725 5720 5714 5708 5703 5699 5695 5692 5689 5685 5682 5680 5677 5676 5676 5675 5675 5676 5677 5678 5681 5683 5685 5688 5691 5694 5698 5701 5702 5706 5710
5772 5767 5763 5760 5766 5769 5761 5756 5766 5769 5766 5761 5756 5751 5745 5738 5732 5728 5722 5717 5712 5707 5702 5698 5694 5691 5687 5684 5681 5678 5676 5674 5672 5671 5672 5673 5674 5675 5676 5678 5679 5682 5685 5687 5691 5694 5695 5697 5703
5760 5770 5766 5762 5753 5751 5759 5735 5756 5760 5756 5755 5753 5749 5744 5739 5733 5727 5721 5716 5711 5707 5703 5698 5694 5690 5686 5683 5679 5674 5670 5667 5668 5668 5669 5670 5671 5672 5672 5674 5675 5677 5679 5682 5685 5689 5691 5692 5694
5764 5772 5768 5763 5755 5749 5757 5744 5751 5759 5750 5751 5751 5748 5744 5739 5733 5727 5722 5716 5712 5708 5702 5697 5693 5689 5685 5682 5679 5675 5671 5668 5668 5668 5667 5667 5668 5669 5669 5670 5671 5673 5675 5677 5680 5683 5686 5688 5690
5773 5769 5767 5764 5754 5737 5757 5748 5744 5752 5751 5750 5751 5748 5744 5739 5734 5728 5724 5718 5712 5708 5702 5698 5693 5688 5685 5682 5679 5676 5671 5669 5666 5665 5664 5664 5664 5665 5666 5666 5667 5669 5670 5672 5675 5678 5680 5683 5686
5767 5752 5738 5735 5731 5742 5761 5749 5745 5754 5759 5755 5750 5747 5744 5739 5733 5727 5723 5717 5712 5707 5702 5698 5693 5688 5685 5682 5679 5676 5672 5669 5666 5664 5662 5662 5661 5661 5662 5662 5663 5664 5666 5668 5670 5672 5675 5678 5680
5762 5755 5732 5719 5732 5745 5754 5745 5747 5762 5761 5758 5754 5749 5744 5740 5734 5729 5724 5719 5714 5709 5704 5699 5694 5690 5687 5683 5679 5676 5672 5668 5665 5664 5662 5661 5660 5659 5659 5659 5660 5661 5662 5664 5666 5667 5670 5673 5675
5755 5755 5760 5740 5741 5738 5752 5752 5750 5760 5756 5755 5753 5748 5743 5741 5737 5732 5727 5722 5717 5712 5707 5702 5697 5692 5688 5685 5681 5677 5673 5669 5666 5664 5663 5661 5660 5659 5658 5657 5657 5658 5659 5661 5662 5662 5664 5667 5669
5762 5758 5750 5737 5725 5724 5746 5749 5740 5746 5750 5752 5751 5748 5746 5743 5739 5735 5730 5725 5720 5716 5711 5706 5701 5695 5691 5688 5683 5679 5675 5671 5667 5665 5663 5661 5659 5658 5656 5656 5656 5656 5657 5658 5659 5659 5661 5662 5665
5752 5749 5747 5742 5740 5721 5720 5729 5757 5754 5754 5753 5753 5752 5748 5744 5740 5736 5732 5728 5724 5719 5715 5709 5704 5699 5694 5689 5685 5681 5676 5673 5669 5666 5664 5662 5660 5658 5656 5656 5655 5654 5654 5655 5656 5657 5658 5659 5661
5760 5755 5750 5732 5734 5738 5725 5729 5764 5762 5761 5758 5755 5754 5751 5747 5743 5739 5735 5730 5725 5720 5716 5712 5707 5702 5696 5692 5688 5683 5678 5674 5670 5667 5665 5663 5661 5660 5658 5656 5654 5654 5653 5654 5654 5654 5656 5656 5658